OneWeb SL0148

operational
NORAD ID: 48059 Int'l Des: 2021-025 Owner: ONEWEBN Country: UK Constellation: oneweb
LEOCIRCULARPOLARONEWEB_TYPE

About OneWeb SL0148

Description loading...

Live Position

Loading 3D Globe...

Upcoming Passes

Altitude History

Altitude vs Time

uPlot chart will show altitude changes over time

Two-Line Element Set

1 48059U 21025T 25258.04424563 -.00000099 00000-0 -30594-3 0 9990
2 48059 87.9035 14.8986 0002423 101.2429 258.8973 13.13472576217490
Epoch: Sep 15, 2025 • Age: 26 hours

Current Status

Altitude 1215.6 km
Velocity 7.25 km/s
Sub-Earth Point 47.35°N, 147.12°E
Launch Date Mar 25, 2021
Age 4.4 years
Type internet

Technical Details

Classification Payload
Mass 148.00 kg
Dry Mass 140.00 kg
Total Mass 148.00 kg
Length 1.30 m
Diameter 1.00 m
Span 5.00 m
Shape Trapezoid+2 pan
Manufacturer ONEWUS
Bus Type ARROW
Phase Status In Orbit
Owner/State ONEWEBN/UK

Large Constellations

Loading constellations...